When you browse on this site, cookies collect data to enhance your experience and personalize the content and advertising you see.
Visit our Privacy Policy to learn more. By continuing to use the site, you agree to this use of cookies and data.

Stündliche Wetter Lemeshi

Heute, 25 September, Freitag

Zeit Temperatur Niederschläge Wind Luftdruck Luftfeuchtigkeit
00:00 +12°C° 0 mm 2 m/S 745 mmHg 83%
01:00 +10°C° 0 mm 2 m/S 745 mmHg 83%
02:00 +10°C° 0 mm 2 m/S 745 mmHg 83%
03:00 +10°C° 0 mm 2 m/S 745 mmHg 83%
04:00 +10°C° 0 mm 2 m/S 745 mmHg 83%
05:00 +9°C° 0 mm 2 m/S 745 mmHg 83%
06:00 +10°C° 0 mm 2 m/S 745 mmHg 79%
07:00 +12°C° 0 mm 3 m/S 745 mmHg 75%
08:00 +13°C° 0 mm 3 m/S 745 mmHg 70%
09:00 +16°C° 0 mm 3 m/S 745 mmHg 66%
10:00 +17°C° 0 mm 3 m/S 745 mmHg 63%
11:00 +19°C° 0 mm 3 m/S 745 mmHg 59%
12:00 +19°C° 0 mm 3 m/S 745 mmHg 59%
13:00 +20°C° 0 mm 3 m/S 744 mmHg 58%
14:00 +21°C° 0 mm 3 m/S 744 mmHg 61%
15:00 +20°C° 0 mm 3 m/S 744 mmHg 67%
16:00 +19°C° 0 mm 3 m/S 744 mmHg 72%
17:00 +18°C° 0 mm 3 m/S 743 mmHg 78%
18:00 +18°C° 0 mm 3 m/S 743 mmHg 79%
19:00 +17°C° 0 mm 3 m/S 744 mmHg 80%
20:00 +17°C° 0 mm 3 m/S 744 mmHg 80%
21:00 +17°C° 0 mm 3 m/S 744 mmHg 79%
22:00 +17°C° 0 mm 3 m/S 744 mmHg 78%
23:00 +17°C° 0 mm 4 m/S 744 mmHg 76%

Morgen, 26 September, Samstag

Zeit Temperatur Niederschläge Wind Luftdruck Luftfeuchtigkeit
00:00 +17°C° 0 mm 4 m/S 744 mmHg 73%
01:00 +15°C° 0 mm 4 m/S 744 mmHg 70%
02:00 +15°C° 0 mm 4 m/S 743 mmHg 67%
03:00 +14°C° 0 mm 4 m/S 743 mmHg 70%
04:00 +13°C° 0 mm 4 m/S 743 mmHg 72%
05:00 +13°C° 0 mm 4 m/S 743 mmHg 74%
06:00 +13°C° 0 mm 4 m/S 743 mmHg 72%
07:00 +14°C° 0 mm 4 m/S 743 mmHg 69%
08:00 +14°C° 0 mm 4 m/S 743 mmHg 67%
09:00 +17°C° 0 mm 4 m/S 744 mmHg 64%
10:00 +18°C° 0 mm 4 m/S 744 mmHg 60%
11:00 +20°C° 0 mm 5 m/S 745 mmHg 57%
12:00 +21°C° 0 mm 5 m/S 744 mmHg 56%
13:00 +21°C° 0 mm 5 m/S 744 mmHg 55%
14:00 +22°C° 0 mm 5 m/S 744 mmHg 54%
15:00 +21°C° 0 mm 4 m/S 744 mmHg 58%
16:00 +20°C° 0 mm 4 m/S 744 mmHg 63%
17:00 +19°C° 0 mm 3 m/S 745 mmHg 68%
18:00 +18°C° 0 mm 3 m/S 745 mmHg 69%
19:00 +17°C° 0 mm 4 m/S 745 mmHg 70%
20:00 +15°C° 0 mm 4 m/S 745 mmHg 71%
21:00 +15°C° 0 mm 4 m/S 745 mmHg 72%
22:00 +15°C° 0 mm 4 m/S 745 mmHg 72%
23:00 +14°C° 0 mm 3 m/S 745 mmHg 73%

übermorgen, 27 September, Sonntag

Zeit Temperatur Niederschläge Wind Luftdruck Luftfeuchtigkeit
00:00 +14°C° 0 mm 4 m/S 745 mmHg 73%
01:00 +13°C° 0 mm 4 m/S 745 mmHg 73%
02:00 +13°C° 0 mm 4 m/S 746 mmHg 73%
03:00 +12°C° 0 mm 4 m/S 745 mmHg 73%
04:00 +12°C° 0 mm 3 m/S 745 mmHg 73%
05:00 +12°C° 0 mm 3 m/S 745 mmHg 73%
06:00 +12°C° 0 mm 4 m/S 746 mmHg 70%
07:00 +13°C° 0 mm 4 m/S 746 mmHg 68%
08:00 +14°C° 0 mm 4 m/S 746 mmHg 65%
09:00 +15°C° 0 mm 5 m/S 746 mmHg 61%
10:00 +17°C° 0 mm 5 m/S 746 mmHg 56%
11:00 +20°C° 0 mm 5 m/S 746 mmHg 51%
12:00 +20°C° 0 mm 5 m/S 746 mmHg 50%
13:00 +20°C° 0 mm 5 m/S 746 mmHg 48%
14:00 +21°C° 0 mm 6 m/S 746 mmHg 47%
15:00 +19°C° 0 mm 5 m/S 746 mmHg 51%
16:00 +17°C° 0 mm 5 m/S 746 mmHg 54%
17:00 +17°C° 0 mm 4 m/S 746 mmHg 58%
18:00 +15°C° 0 mm 4 m/S 746 mmHg 58%
19:00 +15°C° 0 mm 4 m/S 746 mmHg 58%
20:00 +14°C° 0 mm 4 m/S 747 mmHg 59%
21:00 +14°C° 0.3 mm 4 m/S 747 mmHg 66%
22:00 +13°C° 0.3 mm 3 m/S 747 mmHg 74%
23:00 +12°C° 0.3 mm 3 m/S 747 mmHg 82%

28 September, Montag

Zeit Temperatur Niederschläge Wind Luftdruck Luftfeuchtigkeit
00:00 +12°C° 0.7 mm 3 m/S 746 mmHg 86%
01:00 +12°C° 0.7 mm 3 m/S 746 mmHg 89%
02:00 +12°C° 0.7 mm 3 m/S 746 mmHg 93%
03:00 +12°C° 1.8 mm 3 m/S 746 mmHg 93%
04:00 +11°C° 1.8 mm 3 m/S 746 mmHg 94%
05:00 +11°C° 1.8 mm 3 m/S 746 mmHg 95%
06:00 +12°C° 0.7 mm 2 m/S 747 mmHg 95%
07:00 +13°C° 0.7 mm 2 m/S 747 mmHg 96%
08:00 +13°C° 0.7 mm 2 m/S 747 mmHg 96%
09:00 +14°C° 0.2 mm 2 m/S 747 mmHg 95%
10:00 +14°C° 0.2 mm 1 m/S 748 mmHg 94%
11:00 +15°C° 0.2 mm 1 m/S 748 mmHg 92%
12:00 +15°C° 0.1 mm 2 m/S 748 mmHg 89%
13:00 +16°C° 0.1 mm 2 m/S 749 mmHg 85%
14:00 +17°C° 0.1 mm 2 m/S 749 mmHg 82%
15:00 +16°C° 0 mm 1 m/S 749 mmHg 84%
16:00 +15°C° 0 mm 1 m/S 749 mmHg 85%
17:00 +14°C° 0 mm 1 m/S 749 mmHg 87%
18:00 +12°C° 0 mm 0 m/S 749 mmHg 88%
19:00 +11°C° 0 mm 0 m/S 750 mmHg 90%
20:00 +10°C° 0 mm 0 m/S 750 mmHg 91%
21:00 +10°C° 0 mm 0 m/S 750 mmHg 92%
22:00 +10°C° 0 mm 0 m/S 750 mmHg 93%
23:00 +11°C° 0 mm 1 m/S 750 mmHg 93%

29 September, Dienstag

Zeit Temperatur Niederschläge Wind Luftdruck Luftfeuchtigkeit
00:00 +11°C° 0 mm 1 m/S 750 mmHg 94%
01:00 +10°C° 0 mm 1 m/S 750 mmHg 94%
02:00 +10°C° 0 mm 1 m/S 750 mmHg 95%
03:00 +10°C° 0 mm 1 m/S 750 mmHg 96%
04:00 +10°C° 0 mm 1 m/S 750 mmHg 96%
05:00 +10°C° 0 mm 1 m/S 749 mmHg 97%
06:00 +10°C° 0 mm 2 m/S 749 mmHg 96%
07:00 +12°C° 0 mm 2 m/S 749 mmHg 94%
08:00 +13°C° 0 mm 2 m/S 749 mmHg 92%
09:00 +13°C° 0 mm 3 m/S 749 mmHg 89%
10:00 +14°C° 0 mm 3 m/S 748 mmHg 85%
11:00 +17°C° 0 mm 3 m/S 748 mmHg 82%
12:00 +17°C° 0 mm 3 m/S 748 mmHg 78%
13:00 +18°C° 0 mm 4 m/S 747 mmHg 74%
14:00 +19°C° 0 mm 4 m/S 747 mmHg 70%
15:00 +17°C° 0 mm 4 m/S 747 mmHg 73%
16:00 +16°C° 0 mm 3 m/S 747 mmHg 75%
17:00 +14°C° 0 mm 3 m/S 746 mmHg 78%
18:00 +13°C° 0 mm 3 m/S 746 mmHg 78%
19:00 +13°C° 0 mm 3 m/S 746 mmHg 79%
20:00 +12°C° 0 mm 3 m/S 746 mmHg 80%
21:00 +12°C° 0 mm 3 m/S 746 mmHg 81%
22:00 +11°C° 0 mm 3 m/S 746 mmHg 81%
23:00 +11°C° 0 mm 3 m/S 746 mmHg 82%

30 September, Mittwoch

Zeit Temperatur Niederschläge Wind Luftdruck Luftfeuchtigkeit
00:00 +11°C° 0 mm 3 m/S 746 mmHg 83%
01:00 +10°C° 0 mm 3 m/S 746 mmHg 84%
02:00 +10°C° 0 mm 3 m/S 746 mmHg 85%
03:00 +10°C° 0 mm 4 m/S 746 mmHg 85%
04:00 +10°C° 0 mm 4 m/S 745 mmHg 84%
05:00 +11°C° 0 mm 4 m/S 745 mmHg 84%
06:00 +11°C° 0 mm 4 m/S 745 mmHg 81%
07:00 +11°C° 0 mm 4 m/S 745 mmHg 79%
08:00 +12°C° 0 mm 4 m/S 745 mmHg 76%
09:00 +12°C° 0 mm 4 m/S 745 mmHg 71%
10:00 +12°C° 0 mm 4 m/S 745 mmHg 66%
11:00 +13°C° 0 mm 4 m/S 745 mmHg 61%
12:00 +13°C° 0 mm 4 m/S 745 mmHg 61%
13:00 +13°C° 0 mm 4 m/S 745 mmHg 61%
14:00 +13°C° 0 mm 4 m/S 745 mmHg 60%
15:00 +13°C° 0 mm 4 m/S 745 mmHg 61%
16:00 +13°C° 0 mm 4 m/S 746 mmHg 62%
17:00 +13°C° 0 mm 4 m/S 746 mmHg 62%
18:00 +13°C° 0 mm 4 m/S 746 mmHg 64%
19:00 +12°C° 0 mm 3 m/S 746 mmHg 65%
20:00 +12°C° 0 mm 3 m/S 746 mmHg 67%
21:00 +12°C° 0 mm 3 m/S 746 mmHg 66%
22:00 +12°C° 0 mm 3 m/S 746 mmHg 66%
23:00 +11°C° 0 mm 3 m/S 746 mmHg 66%
Mehr zeigen